Hourly Weather Dziegiele

Today, 16 May, Sunday

Time Temperature Precipitation Wind Pressure Humidity
00:00 +9°C° 0 mm 1 mps 739 mmHg 94%
01:00 +9°C° 0 mm 1 mps 739 mmHg 94%
02:00 +9°C° 0 mm 1 mps 738 mmHg 94%
03:00 +8°C° 0 mm 2 mps 738 mmHg 94%
04:00 +8°C° 0 mm 2 mps 738 mmHg 94%
05:00 +10°C° 0 mm 2 mps 738 mmHg 88%
06:00 +11°C° 0 mm 3 mps 738 mmHg 83%
07:00 +13°C° 0 mm 3 mps 738 mmHg 77%
08:00 +14°C° 0.1 mm 3 mps 738 mmHg 74%
09:00 +15°C° 0.1 mm 4 mps 738 mmHg 71%
10:00 +17°C° 0.1 mm 4 mps 738 mmHg 68%
11:00 +16°C° 0.4 mm 5 mps 738 mmHg 70%
12:00 +16°C° 0.4 mm 5 mps 738 mmHg 72%
13:00 +16°C° 0.4 mm 5 mps 737 mmHg 74%
14:00 +16°C° 0.6 mm 5 mps 737 mmHg 78%
15:00 +16°C° 0.6 mm 5 mps 736 mmHg 81%
16:00 +15°C° 0.6 mm 5 mps 736 mmHg 85%
17:00 +15°C° 0.5 mm 4 mps 736 mmHg 87%
18:00 +14°C° 0.5 mm 4 mps 736 mmHg 90%
19:00 +13°C° 0.5 mm 3 mps 735 mmHg 92%
20:00 +13°C° 0.1 mm 3 mps 735 mmHg 93%
21:00 +12°C° 0.1 mm 3 mps 735 mmHg 94%
22:00 +12°C° 0.1 mm 3 mps 735 mmHg 95%
23:00 +12°C° 0.1 mm 2 mps 735 mmHg 96%

Tomorrow, 17 May, Monday

Time Temperature Precipitation Wind Pressure Humidity
00:00 +12°C° 0.1 mm 2 mps 736 mmHg 96%
01:00 +12°C° 0.1 mm 2 mps 736 mmHg 96%
02:00 +12°C° 0 mm 2 mps 736 mmHg 96%
03:00 +10°C° 0 mm 2 mps 736 mmHg 96%
04:00 +10°C° 0 mm 2 mps 736 mmHg 97%
05:00 +12°C° 0 mm 2 mps 736 mmHg 92%
06:00 +13°C° 0 mm 2 mps 737 mmHg 87%
07:00 +14°C° 0 mm 2 mps 737 mmHg 82%
08:00 +15°C° 0 mm 2 mps 737 mmHg 74%
09:00 +16°C° 0 mm 2 mps 737 mmHg 66%
10:00 +18°C° 0 mm 2 mps 737 mmHg 59%
11:00 +18°C° 0 mm 2 mps 737 mmHg 56%
12:00 +20°C° 0 mm 1 mps 737 mmHg 53%
13:00 +21°C° 0 mm 1 mps 737 mmHg 51%
14:00 +21°C° 0 mm 1 mps 737 mmHg 51%
15:00 +21°C° 0 mm 1 mps 736 mmHg 52%
16:00 +21°C° 0 mm 1 mps 736 mmHg 52%
17:00 +19°C° 0 mm 1 mps 736 mmHg 61%
18:00 +16°C° 0 mm 2 mps 736 mmHg 69%
19:00 +15°C° 0 mm 2 mps 735 mmHg 77%
20:00 +14°C° 0 mm 2 mps 735 mmHg 79%
21:00 +13°C° 0 mm 2 mps 735 mmHg 81%
22:00 +12°C° 0 mm 2 mps 735 mmHg 83%
23:00 +12°C° 0 mm 2 mps 734 mmHg 84%

Day after tomorrow, 18 May, Tuesday

Time Temperature Precipitation Wind Pressure Humidity
00:00 +12°C° 0 mm 2 mps 734 mmHg 85%
01:00 +12°C° 0 mm 2 mps 734 mmHg 85%
02:00 +10°C° 0 mm 2 mps 734 mmHg 87%
03:00 +10°C° 0 mm 2 mps 734 mmHg 89%
04:00 +10°C° 0 mm 2 mps 733 mmHg 91%
05:00 +11°C° 0 mm 3 mps 733 mmHg 87%
06:00 +12°C° 0 mm 3 mps 733 mmHg 83%
07:00 +13°C° 0 mm 3 mps 733 mmHg 79%
08:00 +14°C° 0 mm 4 mps 734 mmHg 76%
09:00 +15°C° 0 mm 4 mps 734 mmHg 73%
10:00 +17°C° 0 mm 4 mps 734 mmHg 69%
11:00 +18°C° 0.2 mm 4 mps 734 mmHg 67%
12:00 +18°C° 0.2 mm 4 mps 735 mmHg 65%
13:00 +19°C° 0.2 mm 4 mps 735 mmHg 62%
14:00 +17°C° 0.2 mm 5 mps 735 mmHg 65%
15:00 +16°C° 0.2 mm 5 mps 736 mmHg 67%
16:00 +15°C° 0.2 mm 5 mps 736 mmHg 70%
17:00 +14°C° 0 mm 5 mps 736 mmHg 74%
18:00 +12°C° 0 mm 5 mps 737 mmHg 78%
19:00 +9°C° 0 mm 5 mps 738 mmHg 82%
20:00 +10°C° 0.1 mm 4 mps 738 mmHg 84%
21:00 +8°C° 0.1 mm 4 mps 738 mmHg 86%
22:00 +8°C° 0.1 mm 4 mps 738 mmHg 88%
23:00 +8°C° 0.2 mm 4 mps 738 mmHg 90%

19 May, Wednesday

Time Temperature Precipitation Wind Pressure Humidity
00:00 +7°C° 0.2 mm 4 mps 738 mmHg 91%
01:00 +7°C° 0.2 mm 4 mps 739 mmHg 93%
02:00 +8°C° 0.2 mm 3 mps 739 mmHg 94%
03:00 +8°C° 0.2 mm 3 mps 739 mmHg 95%
04:00 +8°C° 0.2 mm 3 mps 739 mmHg 96%
05:00 +11°C° 0 mm 4 mps 739 mmHg 82%
06:00 +10°C° 0 mm 4 mps 739 mmHg 86%
07:00 +8°C° 0 mm 4 mps 739 mmHg 89%
08:00 +10°C° 0.2 mm 3 mps 740 mmHg 88%
09:00 +11°C° 0.2 mm 3 mps 740 mmHg 84%
10:00 +12°C° 0.2 mm 4 mps 740 mmHg 79%
11:00 +13°C° 0.2 mm 5 mps 739 mmHg 76%
12:00 +13°C° 0.2 mm 5 mps 739 mmHg 75%
13:00 +13°C° 0.2 mm 5 mps 739 mmHg 73%
14:00 +11°C° 0.2 mm 4 mps 739 mmHg 84%
15:00 +12°C° 0.2 mm 4 mps 739 mmHg 79%
16:00 +13°C° 0.2 mm 3 mps 739 mmHg 75%
17:00 +12°C° 0.2 mm 3 mps 739 mmHg 80%
18:00 +11°C° 0.2 mm 3 mps 739 mmHg 85%
19:00 +10°C° 0.2 mm 3 mps 739 mmHg 90%
20:00 +9°C° 0 mm 3 mps 739 mmHg 92%
21:00 +8°C° 0 mm 3 mps 739 mmHg 95%
22:00 +7°C° 0 mm 3 mps 740 mmHg 97%
23:00 +5°C° 0 mm 3 mps 740 mmHg 97%

20 May, Thursday

Time Temperature Precipitation Wind Pressure Humidity
00:00 +5°C° 0 mm 3 mps 740 mmHg 97%
01:00 +4°C° 0 mm 3 mps 740 mmHg 97%
02:00 +4°C° 0 mm 3 mps 739 mmHg 96%
03:00 +4°C° 0 mm 3 mps 739 mmHg 96%
04:00 +4°C° 0 mm 3 mps 739 mmHg 96%
05:00 +5°C° 0 mm 3 mps 739 mmHg 90%
06:00 +8°C° 0 mm 3 mps 740 mmHg 84%
07:00 +10°C° 0 mm 4 mps 740 mmHg 78%
08:00 +11°C° 0 mm 4 mps 740 mmHg 74%
09:00 +12°C° 0 mm 4 mps 740 mmHg 69%
10:00 +13°C° 0 mm 3 mps 740 mmHg 65%
11:00 +14°C° 0.2 mm 4 mps 740 mmHg 65%
12:00 +14°C° 0.2 mm 4 mps 740 mmHg 66%
13:00 +14°C° 0.2 mm 4 mps 740 mmHg 66%
14:00 +14°C° 0.4 mm 4 mps 740 mmHg 71%
15:00 +13°C° 0.4 mm 4 mps 741 mmHg 75%
16:00 +13°C° 0.4 mm 4 mps 741 mmHg 79%
17:00 +12°C° 0.1 mm 4 mps 741 mmHg 82%
18:00 +11°C° 0.1 mm 4 mps 741 mmHg 84%
19:00 +8°C° 0.1 mm 4 mps 741 mmHg 86%
20:00 +8°C° 0 mm 3 mps 742 mmHg 88%
21:00 +7°C° 0 mm 3 mps 742 mmHg 90%
22:00 +6°C° 0 mm 2 mps 742 mmHg 93%
23:00 +6°C° 0 mm 2 mps 742 mmHg 94%

21 May, Friday

Time Temperature Precipitation Wind Pressure Humidity
00:00 +5°C° 0 mm 2 mps 742 mmHg 95%
01:00 +5°C° 0 mm 2 mps 742 mmHg 96%
02:00 +5°C° 0 mm 2 mps 742 mmHg 96%
03:00 +4°C° 0 mm 2 mps 742 mmHg 95%
04:00 +4°C° 0 mm 2 mps 742 mmHg 95%
05:00 +5°C° 0 mm 3 mps 742 mmHg 89%
06:00 +7°C° 0 mm 3 mps 742 mmHg 83%
07:00 +8°C° 0 mm 4 mps 742 mmHg 78%
08:00 +10°C° 0.1 mm 4 mps 742 mmHg 76%
09:00 +9°C° 0.1 mm 5 mps 742 mmHg 74%
10:00 +10°C° 0.1 mm 5 mps 742 mmHg 72%
11:00 +10°C° 0.1 mm 5 mps 742 mmHg 71%
12:00 +9°C° 0.1 mm 5 mps 743 mmHg 71%
13:00 +9°C° 0.1 mm 5 mps 743 mmHg 71%
14:00 +9°C° 0 mm 5 mps 743 mmHg 71%
15:00 +10°C° 0 mm 4 mps 743 mmHg 70%
16:00 +10°C° 0 mm 4 mps 743 mmHg 70%
17:00 +8°C° 0 mm 4 mps 743 mmHg 73%
18:00 +9°C° 0 mm 3 mps 743 mmHg 76%
19:00 +8°C° 0 mm 3 mps 743 mmHg 79%
20:00 +7°C° 0 mm 3 mps 743 mmHg 82%
21:00 +5°C° 0 mm 3 mps 743 mmHg 86%
22:00 +4°C° 0 mm 3 mps 743 mmHg 89%
23:00 +4°C° 0 mm 3 mps 744 mmHg 89%
Show more

We Need Your Consent

Meteoprog and our Service Providers may store and access personal data such as cookies, device identifiers or other similar technologies on your device and process such data to personalise content and ads, as well as provide social media features and to analyse the traffic.

  • Store and/or access information on your device

    Cookies, device identifiers or other information can be stored or accessed on your device for the purposes indicated above.

  • Personalised ads and content, ad and content measurement, audience insights, and products development

    Ads and content can be personalised based on a profile. More data can be added to better personalise ads and content. Ad and content performance can be measured. Insights about the audience who saw the ads and content can be derived. Such data can be used to develop or improve user’s experience, systems and software.

By clicking ‘I Agree’ you will allow the use of indicated cookies, device identifiers, web beacons or other similar technologies. Your settings can be changed in the browser on your device.

For certain purposes, legitimate interests may be relied on, rather than consent. You can read more about this in our Privacy and Cookie Policy.